Accueil
METAR-TAF:

METAR-TAF

Aéroports :

Dax, France

Seyresse

latitude: 43-41N, longitude: 001-04W, altitude: 32 m

Observation

Le bulletin a été fait il y a 22 minutes, à 01:30 UTC
Vent 1 kt de sud/sud-est
Température 19°C
Humidité 83%
Pression 1024 hPa
Visibilité 10 km ou plus
Ciel couvert à une hauteur de 4400 ft

METAR: LFBY 240130Z AUTO 15001KT 9999 // OVC044 19/16 Q1024

Heure: 03:52 (01:52 UTC)


TAF: absent

Observations et prévisions météorologiques de plus de 4000 aéroports (messages METAR et TAF).

Les stations disponibles sont représentées par des disques jaunes et rouges sur la carte.

Passer la souris dessus pour voir le nom de la station.

Cliquer dessus pour voir les observations et prévisions météorologiques.

Pour changer de carte: cliquez sur les boutons verts avec une croix noire pour zoomer, sur le bouton vert avec un tiret pour effectuer un zoom arrière, ou sur les flèches vertes pour les cartes adjacentes.


METAR-TAF: